Time,TemperatureF,DewpointF,PressureIn,WindDirection,WindDirectionDegrees,WindSpeedMPH,WindSpeedGustMPH,Humidity,HourlyPrecipIn,Conditions,Clouds,dailyrainin,SoftwareType,DateUTC
2013-02-06 00:00:00,30.7,27.6,30.14,West,277,3.0,4.0,88,0.00,,---,0.00,VWS V14.01,2013-02-06 06:00:00,
2013-02-06 00:02:00,31.5,28.1,30.13,WNW,288,5.0,7.0,87,0.00,,---,0.00,VWS V14.01,2013-02-06 06:02:00,
2013-02-06 00:07:00,31.7,28.3,30.13,WNW,299,6.0,7.0,87,0.00,,---,0.00,VWS V14.01,2013-02-06 06:07:00,
2013-02-06 00:12:00,31.8,28.4,30.13,WNW,292,3.0,7.0,87,0.00,,---,0.00,VWS V14.01,2013-02-06 06:12:00,
2013-02-06 00:17:00,31.9,28.5,30.13,WNW,291,4.0,7.0,87,0.00,,---,0.00,VWS V14.01,2013-02-06 06:17:00,
2013-02-06 00:22:00,31.7,28.3,30.14,WNW,292,3.0,7.0,87,0.00,,---,0.00,VWS V14.01,2013-02-06 06:22:00,
2013-02-06 00:27:00,31.5,28.1,30.14,WNW,292,3.0,7.0,87,0.00,,---,0.00,VWS V14.01,2013-02-06 06:27:00,
2013-02-06 00:30:00,31.4,28.0,30.14,WNW,292,3.0,7.0,87,0.00,,---,0.00,VWS V14.01,2013-02-06 06:30:00,
2013-02-06 00:32:00,31.4,28.3,30.14,WNW,292,1.0,3.0,88,0.00,,---,0.00,VWS V14.01,2013-02-06 06:32:00,
2013-02-06 00:37:00,31.3,28.2,30.14,WNW,292,2.0,3.0,88,0.00,,---,0.00,VWS V14.01,2013-02-06 06:37:00,
2013-02-06 00:43:00,31.2,28.1,30.14,WNW,292,2.0,3.0,88,0.00,,---,0.00,VWS V14.01,2013-02-06 06:43:00,
2013-02-06 00:48:00,31.1,28.0,30.14,WNW,292,2.0,3.0,88,0.00,,---,0.00,VWS V14.01,2013-02-06 06:48:00,
2013-02-06 00:53:00,30.8,27.7,30.14,WNW,292,3.0,4.0,88,0.00,,---,0.00,VWS V14.01,2013-02-06 06:53:00,
2013-02-06 00:58:00,30.7,27.6,30.14,West,277,3.0,4.0,88,0.00,,---,0.00,VWS V14.01,2013-02-06 06:58:00,
2013-02-06 01:00:00,29.9,27.1,30.16,West,263,2.0,5.0,89,0.00,,---,0.00,VWS V14.01,2013-02-06 07:00:00,
2013-02-06 01:03:00,30.5,27.4,30.13,West,277,3.0,4.0,88,0.00,,---,0.00,VWS V14.01,2013-02-06 07:03:00,
2013-02-06 01:08:00,30.5,27.4,30.14,West,277,2.0,4.0,88,0.00,,---,0.00,VWS V14.01,2013-02-06 07:08:00,
2013-02-06 01:13:00,30.4,27.3,30.14,West,278,2.0,4.0,88,0.00,,---,0.00,VWS V14.01,2013-02-06 07:13:00,
2013-02-06 01:18:00,30.3,27.2,30.14,West,278,3.0,4.0,88,0.00,,---,0.00,VWS V14.01,2013-02-06 07:18:00,
2013-02-06 01:24:00,30.2,27.1,30.15,West,277,4.0,4.0,88,0.00,,---,0.00,VWS V14.01,2013-02-06 07:24:00,
2013-02-06 01:29:00,30.1,27.3,30.15,West,278,4.0,5.0,89,0.00,,---,0.00,VWS V14.01,2013-02-06 07:29:00,
2013-02-06 01:30:00,29.1,26.3,30.17,West,263,1.0,3.0,89,0.00,,---,0.00,VWS V14.01,2013-02-06 07:30:00,
2013-02-06 01:34:00,29.9,26.8,30.15,West,280,4.0,5.0,88,0.00,,---,0.00,VWS V14.01,2013-02-06 07:34:00,
2013-02-06 01:39:00,29.8,26.7,30.15,West,280,4.0,5.0,88,0.00,,---,0.00,VWS V14.01,2013-02-06 07:39:00,
2013-02-06 01:44:00,29.6,26.8,30.16,West,277,3.0,5.0,89,0.00,,---,0.00,VWS V14.01,2013-02-06 07:44:00,
2013-02-06 01:49:00,29.7,27.1,30.16,West,261,3.0,5.0,90,0.00,,---,0.00,VWS V14.01,2013-02-06 07:49:00,
2013-02-06 01:54:00,29.9,27.1,30.16,West,261,2.0,5.0,89,0.00,,---,0.00,VWS V14.01,2013-02-06 07:54:00,
2013-02-06 01:59:00,29.9,27.1,30.16,West,263,2.0,3.0,89,0.00,,---,0.00,VWS V14.01,2013-02-06 07:59:00,
2013-02-06 02:00:00,27.8,25.2,30.16,WSW,254,0.0,3.0,90,0.00,,---,0.00,VWS V14.01,2013-02-06 08:00:00,
2013-02-06 02:05:00,29.8,27.0,30.16,West,263,1.0,3.0,89,0.00,,---,0.00,VWS V14.01,2013-02-06 08:05:00,
2013-02-06 02:10:00,29.7,26.9,30.16,West,263,0.0,3.0,89,0.00,,---,0.00,VWS V14.01,2013-02-06 08:10:00,
2013-02-06 02:15:00,29.5,26.7,30.16,West,263,2.0,3.0,89,0.00,,---,0.00,VWS V14.01,2013-02-06 08:15:00,
2013-02-06 02:20:00,29.4,26.6,30.17,West,263,2.0,3.0,89,0.00,,---,0.00,VWS V14.01,2013-02-06 08:20:00,
2013-02-06 02:25:00,29.2,26.4,30.17,West,263,0.0,3.0,89,0.00,,---,0.00,VWS V14.01,2013-02-06 08:25:00,
2013-02-06 02:30:00,29.0,26.2,30.17,West,261,3.0,3.0,89,0.00,,---,0.00,VWS V14.01,2013-02-06 08:30:00,
2013-02-06 02:35:00,28.8,26.2,30.16,WSW,254,1.0,3.0,90,0.00,,---,0.00,VWS V14.01,2013-02-06 08:35:00,
2013-02-06 02:40:00,28.6,26.0,30.16,WSW,254,0.0,3.0,90,0.00,,---,0.00,VWS V14.01,2013-02-06 08:40:00,
2013-02-06 02:45:00,28.4,25.9,30.16,WSW,254,0.0,3.0,90,0.00,,---,0.00,VWS V14.01,2013-02-06 08:45:00,
2013-02-06 02:51:00,28.2,25.6,30.16,WSW,254,0.0,3.0,90,0.00,,---,0.00,VWS V14.01,2013-02-06 08:51:00,
2013-02-06 02:56:00,27.9,25.4,30.16,WSW,254,0.0,3.0,90,0.00,,---,0.00,VWS V14.01,2013-02-06 08:56:00,
2013-02-06 03:00:00,26.0,23.7,30.17,WSW,254,0.0,3.0,91,0.00,,---,0.00,VWS V14.01,2013-02-06 09:00:00,
2013-02-06 03:01:00,27.6,25.1,30.16,WSW,254,0.0,0.0,90,0.00,,---,0.00,VWS V14.01,2013-02-06 09:01:00,
2013-02-06 03:06:00,27.4,25.1,30.16,WSW,254,0.0,0.0,91,0.00,,---,0.00,VWS V14.01,2013-02-06 09:06:00,
2013-02-06 03:11:00,27.6,25.6,30.16,WSW,254,0.0,0.0,92,0.00,,---,0.00,VWS V14.01,2013-02-06 09:11:00,
2013-02-06 03:16:00,27.6,25.6,30.17,WSW,254,1.0,2.0,92,0.00,,---,0.00,VWS V14.01,2013-02-06 09:16:00,
2013-02-06 03:21:00,27.6,25.6,30.17,WSW,254,1.0,3.0,92,0.00,,---,0.00,VWS V14.01,2013-02-06 09:21:00,
2013-02-06 03:26:00,27.6,25.6,30.17,WSW,254,2.0,3.0,92,0.00,,---,0.00,VWS V14.01,2013-02-06 09:26:00,
2013-02-06 03:30:00,25.3,23.3,30.17,WSW,254,0.0,0.0,92,0.00,,---,0.00,VWS V14.01,2013-02-06 09:30:00,
2013-02-06 03:31:00,27.6,25.6,30.17,WSW,254,2.0,3.0,92,0.00,,---,0.00,VWS V14.01,2013-02-06 09:31:00,
2013-02-06 03:37:00,27.6,25.6,30.17,WSW,254,0.0,3.0,92,0.00,,---,0.00,VWS V14.01,2013-02-06 09:37:00,
2013-02-06 03:42:00,27.4,25.4,30.17,WSW,254,0.0,3.0,92,0.00,,---,0.00,VWS V14.01,2013-02-06 09:42:00,
2013-02-06 03:47:00,27.0,24.7,30.17,WSW,254,0.0,3.0,91,0.00,,---,0.00,VWS V14.01,2013-02-06 09:47:00,
2013-02-06 03:52:00,26.5,24.2,30.17,WSW,254,0.0,3.0,91,0.00,,---,0.00,VWS V14.01,2013-02-06 09:52:00,
2013-02-06 03:57:00,26.1,23.8,30.17,WSW,254,0.0,3.0,91,0.00,,---,0.00,VWS V14.01,2013-02-06 09:57:00,
2013-02-06 04:00:00,25.2,23.5,30.18,WSW,254,0.0,0.0,93,0.00,,---,0.00,VWS V14.01,2013-02-06 10:00:00,
2013-02-06 04:02:00,25.8,23.8,30.17,WSW,254,0.0,0.0,92,0.00,,---,0.00,VWS V14.01,2013-02-06 10:02:00,
2013-02-06 04:07:00,25.7,23.7,30.17,WSW,254,0.0,0.0,92,0.00,,---,0.00,VWS V14.01,2013-02-06 10:07:00,
2013-02-06 04:12:00,25.5,23.5,30.17,WSW,254,0.0,0.0,92,0.00,,---,0.00,VWS V14.01,2013-02-06 10:12:00,
2013-02-06 04:17:00,25.4,23.4,30.18,WSW,254,0.0,0.0,92,0.00,,---,0.00,VWS V14.01,2013-02-06 10:17:00,
2013-02-06 04:23:00,25.3,23.3,30.17,WSW,254,0.0,0.0,92,0.00,,---,0.00,VWS V14.01,2013-02-06 10:23:00,
2013-02-06 04:28:00,25.3,23.3,30.17,WSW,254,0.0,0.0,92,0.00,,---,0.00,VWS V14.01,2013-02-06 10:28:00,
2013-02-06 04:30:00,25.0,23.5,30.19,WSW,254,0.0,0.0,94,0.00,,---,0.00,VWS V14.01,2013-02-06 10:30:00,
2013-02-06 04:33:00,25.3,23.6,30.17,WSW,254,0.0,0.0,93,0.00,,---,0.00,VWS V14.01,2013-02-06 10:33:00,
2013-02-06 04:38:00,25.4,23.7,30.17,WSW,254,0.0,0.0,93,0.00,,---,0.00,VWS V14.01,2013-02-06 10:38:00,
2013-02-06 04:43:00,25.4,23.7,30.17,WSW,254,0.0,0.0,93,0.00,,---,0.00,VWS V14.01,2013-02-06 10:43:00,
2013-02-06 04:48:00,25.2,23.5,30.18,WSW,254,0.0,0.0,93,0.00,,---,0.00,VWS V14.01,2013-02-06 10:48:00,
2013-02-06 04:53:00,25.2,23.5,30.18,WSW,254,0.0,0.0,93,0.00,,---,0.00,VWS V14.01,2013-02-06 10:53:00,
2013-02-06 04:58:00,25.2,23.5,30.18,WSW,254,0.0,0.0,93,0.00,,---,0.00,VWS V14.01,2013-02-06 10:58:00,
2013-02-06 05:00:00,24.8,23.3,30.19,WSW,254,0.0,0.0,94,0.00,,---,0.00,VWS V14.01,2013-02-06 11:00:00,
2013-02-06 05:03:00,25.2,23.5,30.18,WSW,254,0.0,0.0,93,0.00,,---,0.00,VWS V14.01,2013-02-06 11:03:00,
2013-02-06 05:08:00,25.2,23.5,30.18,WSW,254,0.0,0.0,93,0.00,,---,0.00,VWS V14.01,2013-02-06 11:08:00,
2013-02-06 05:13:00,25.2,23.5,30.17,WSW,254,0.0,0.0,93,0.00,,---,0.00,VWS V14.01,2013-02-06 11:13:00,
2013-02-06 05:19:00,24.9,23.2,30.18,WSW,254,0.0,0.0,93,0.00,,---,0.00,VWS V14.01,2013-02-06 11:19:00,
2013-02-06 05:24:00,24.9,23.2,30.18,WSW,254,0.0,0.0,93,0.00,,---,0.00,VWS V14.01,2013-02-06 11:24:00,
2013-02-06 05:29:00,25.0,23.5,30.19,WSW,254,0.0,0.0,94,0.00,,---,0.00,VWS V14.01,2013-02-06 11:29:00,
2013-02-06 05:30:00,24.7,23.0,30.21,WSW,254,0.0,0.0,93,0.00,,---,0.00,VWS V14.01,2013-02-06 11:30:00,
2013-02-06 05:34:00,25.0,23.5,30.19,WSW,254,0.0,0.0,94,0.00,,---,0.00,VWS V14.01,2013-02-06 11:34:00,
2013-02-06 05:39:00,24.9,23.2,30.19,WSW,254,0.0,0.0,93,0.00,,---,0.00,VWS V14.01,2013-02-06 11:39:00,
2013-02-06 05:44:00,24.8,23.1,30.19,WSW,254,0.0,0.0,93,0.00,,---,0.00,VWS V14.01,2013-02-06 11:44:00,
2013-02-06 05:49:00,24.6,22.9,30.19,WSW,254,0.0,0.0,93,0.00,,---,0.00,VWS V14.01,2013-02-06 11:49:00,
2013-02-06 05:54:00,24.7,23.0,30.19,WSW,254,0.0,0.0,93,0.00,,---,0.00,VWS V14.01,2013-02-06 11:54:00,
2013-02-06 05:59:00,24.8,23.3,30.20,WSW,254,0.0,0.0,94,0.00,,---,0.00,VWS V14.01,2013-02-06 11:59:00,
2013-02-06 06:00:00,23.3,21.6,30.20,WSW,254,0.0,0.0,93,0.00,,---,0.00,VWS V14.01,2013-02-06 12:00:00,
2013-02-06 06:04:00,24.8,23.3,30.20,WSW,254,0.0,0.0,94,0.00,,---,0.00,VWS V14.01,2013-02-06 12:04:00,
2013-02-06 06:09:00,24.7,23.0,30.20,WSW,254,0.0,0.0,93,0.00,,---,0.00,VWS V14.01,2013-02-06 12:09:00,
2013-02-06 06:14:00,24.9,23.4,30.20,WSW,254,0.0,0.0,94,0.00,,---,0.00,VWS V14.01,2013-02-06 12:14:00,
2013-02-06 06:19:00,25.2,23.7,30.21,WSW,254,0.0,0.0,94,0.00,,---,0.00,VWS V14.01,2013-02-06 12:19:00,
2013-02-06 06:24:00,24.9,23.2,30.21,WSW,254,0.0,0.0,93,0.00,,---,0.00,VWS V14.01,2013-02-06 12:24:00,
2013-02-06 06:29:00,24.6,22.9,30.21,WSW,254,0.0,0.0,93,0.00,,---,0.00,VWS V14.01,2013-02-06 12:29:00,
2013-02-06 06:30:00,23.6,21.9,30.22,WSW,254,0.0,0.0,93,0.00,,---,0.00,VWS V14.01,2013-02-06 12:30:00,
2013-02-06 06:34:00,24.2,22.5,30.21,WSW,254,0.0,0.0,93,0.00,,---,0.00,VWS V14.01,2013-02-06 12:34:00,
2013-02-06 06:40:00,24.1,22.4,30.20,WSW,254,0.0,0.0,93,0.00,,---,0.00,VWS V14.01,2013-02-06 12:40:00,
2013-02-06 06:45:00,23.9,22.2,30.20,WSW,254,0.0,0.0,93,0.00,,---,0.00,VWS V14.01,2013-02-06 12:45:00,
2013-02-06 06:50:00,23.7,22.0,30.20,WSW,254,0.0,0.0,93,0.00,,---,0.00,VWS V14.01,2013-02-06 12:50:00,
2013-02-06 06:55:00,23.5,21.8,30.20,WSW,254,0.0,0.0,93,0.00,,---,0.00,VWS V14.01,2013-02-06 12:55:00,
2013-02-06 07:00:00,23.3,21.6,30.20,WSW,254,0.0,0.0,93,0.00,,---,0.00,VWS V14.01,2013-02-06 13:00:00,
2013-02-06 07:05:00,23.1,21.4,30.20,WSW,254,0.0,0.0,93,0.00,,---,0.00,VWS V14.01,2013-02-06 13:05:00,
2013-02-06 07:10:00,23.1,21.4,30.20,WSW,254,0.0,0.0,93,0.00,,---,0.00,VWS V14.01,2013-02-06 13:10:00,
2013-02-06 07:15:00,23.1,21.4,30.21,WSW,254,0.0,0.0,93,0.00,,---,0.00,VWS V14.01,2013-02-06 13:15:00,
2013-02-06 07:20:00,23.2,21.5,30.21,WSW,254,0.0,0.0,93,0.00,,---,0.00,VWS V14.01,2013-02-06 13:20:00,
2013-02-06 07:25:00,23.5,21.8,30.22,WSW,254,0.0,0.0,93,0.00,,---,0.00,VWS V14.01,2013-02-06 13:25:00,
2013-02-06 07:30:00,30.6,28.8,30.22,WSW,254,0.0,0.0,93,0.00,,---,0.00,VWS V14.01,2013-02-06 13:30:00,
2013-02-06 07:31:00,23.7,22.0,30.21,WSW,254,0.0,0.0,93,0.00,,---,0.00,VWS V14.01,2013-02-06 13:31:00,
2013-02-06 07:36:00,24.0,22.5,30.22,WSW,254,0.0,0.0,94,0.00,,---,0.00,VWS V14.01,2013-02-06 13:36:00,
2013-02-06 07:41:00,24.4,22.9,30.21,WSW,254,0.0,0.0,94,0.00,,---,0.00,VWS V14.01,2013-02-06 13:41:00,
2013-02-06 07:46:00,24.8,23.3,30.22,WSW,254,0.0,0.0,94,0.00,,---,0.00,VWS V14.01,2013-02-06 13:46:00,
2013-02-06 07:51:00,25.5,24.0,30.22,WSW,254,0.0,0.0,94,0.00,,---,0.00,VWS V14.01,2013-02-06 13:51:00,
2013-02-06 07:56:00,26.3,24.8,30.22,WSW,254,0.0,0.0,94,0.00,,---,0.00,VWS V14.01,2013-02-06 13:56:00,
2013-02-06 08:00:00,32.4,29.5,30.21,ESE,123,3.0,6.0,89,0.00,,---,0.00,VWS V14.01,2013-02-06 14:00:00,
2013-02-06 08:01:00,27.2,26.0,30.22,WSW,254,0.0,0.0,95,0.00,,---,0.00,VWS V14.01,2013-02-06 14:01:00,
2013-02-06 08:06:00,28.0,26.8,30.22,WSW,254,0.0,0.0,95,0.00,,---,0.00,VWS V14.01,2013-02-06 14:06:00,
2013-02-06 08:11:00,28.7,27.2,30.22,WSW,254,0.0,0.0,94,0.00,,---,0.00,VWS V14.01,2013-02-06 14:11:00,
2013-02-06 08:16:00,29.1,27.6,30.22,WSW,254,0.0,0.0,94,0.00,,---,0.00,VWS V14.01,2013-02-06 14:16:00,
2013-02-06 08:21:00,29.8,28.3,30.23,WSW,254,0.0,0.0,94,0.00,,---,0.00,VWS V14.01,2013-02-06 14:21:00,
2013-02-06 08:26:00,30.3,28.5,30.22,WSW,254,0.0,0.0,93,0.00,,---,0.00,VWS V14.01,2013-02-06 14:26:00,
2013-02-06 08:30:00,33.6,29.9,30.21,SSE,158,6.0,9.0,86,0.00,,---,0.00,VWS V14.01,2013-02-06 14:30:00,
2013-02-06 08:31:00,31.0,29.0,30.22,WSW,254,0.0,0.0,92,0.00,,---,0.00,VWS V14.01,2013-02-06 14:31:00,
2013-02-06 08:37:00,31.6,29.3,30.22,WSW,254,1.0,1.0,91,0.00,,---,0.00,VWS V14.01,2013-02-06 14:37:00,
2013-02-06 08:42:00,31.8,29.2,30.22,South,187,0.0,2.0,90,0.00,,---,0.00,VWS V14.01,2013-02-06 14:42:00,
2013-02-06 08:47:00,32.1,29.5,30.22,South,183,1.0,2.0,90,0.00,,---,0.00,VWS V14.01,2013-02-06 14:47:00,
2013-02-06 08:52:00,32.1,29.2,30.22,SSE,153,2.0,5.0,89,0.00,,---,0.00,VWS V14.01,2013-02-06 14:52:00,
2013-02-06 08:57:00,32.3,29.4,30.21,ESE,123,3.0,6.0,89,0.00,,---,0.00,VWS V14.01,2013-02-06 14:57:00,
2013-02-06 09:00:00,35.3,30.4,30.23,SSE,166,8.0,11.0,82,0.00,,---,0.00,VWS V14.01,2013-02-06 15:00:00,
2013-02-06 09:02:00,32.5,29.6,30.21,SE,134,6.0,7.0,89,0.00,,---,0.00,VWS V14.01,2013-02-06 15:02:00,
2013-02-06 09:07:00,32.5,29.4,30.21,SE,138,8.0,9.0,88,0.00,,---,0.00,VWS V14.01,2013-02-06 15:07:00,
2013-02-06 09:12:00,32.5,29.4,30.21,SSE,156,6.0,9.0,88,0.00,,---,0.00,VWS V14.01,2013-02-06 15:12:00,
2013-02-06 09:17:00,32.9,29.5,30.22,SSE,166,4.0,9.0,87,0.00,,---,0.00,VWS V14.01,2013-02-06 15:17:00,
2013-02-06 09:22:00,33.2,29.5,30.22,SSE,150,6.0,9.0,86,0.00,,---,0.00,VWS V14.01,2013-02-06 15:22:00,
2013-02-06 09:27:00,33.5,29.8,30.21,SSE,148,7.0,9.0,86,0.00,,---,0.00,VWS V14.01,2013-02-06 15:27:00,
2013-02-06 09:30:00,36.3,30.4,30.24,South,169,5.0,12.0,79,0.00,,---,0.00,VWS V14.01,2013-02-06 15:30:00,
2013-02-06 09:32:00,34.0,30.3,30.22,SSE,148,5.0,8.0,86,0.00,,---,0.00,VWS V14.01,2013-02-06 15:32:00,
2013-02-06 09:37:00,34.3,29.7,30.22,SSE,161,9.0,10.0,83,0.00,,---,0.00,VWS V14.01,2013-02-06 15:37:00,
2013-02-06 09:43:00,34.5,29.9,30.23,SSE,153,8.0,10.0,83,0.00,,---,0.00,VWS V14.01,2013-02-06 15:43:00,
2013-02-06 09:48:00,34.8,30.2,30.23,SSE,163,5.0,10.0,83,0.00,,---,0.00,VWS V14.01,2013-02-06 15:48:00,
2013-02-06 09:53:00,35.0,30.1,30.23,SSE,151,8.0,10.0,82,0.00,,---,0.00,VWS V14.01,2013-02-06 15:53:00,
2013-02-06 09:58:00,35.2,30.6,30.23,SSE,149,5.0,11.0,83,0.00,,---,0.00,VWS V14.01,2013-02-06 15:58:00,
2013-02-06 10:00:00,36.6,30.7,30.23,SSW,194,1.0,13.0,79,0.00,,---,0.00,VWS V14.01,2013-02-06 16:00:00,
2013-02-06 10:03:00,35.7,30.5,30.23,SSE,165,4.0,8.0,81,0.00,,---,0.00,VWS V14.01,2013-02-06 16:03:00,
2013-02-06 10:08:00,36.0,30.4,30.23,SSW,195,3.0,12.0,80,0.00,,---,0.00,VWS V14.01,2013-02-06 16:08:00,
2013-02-06 10:13:00,36.3,30.7,30.23,South,180,3.0,12.0,80,0.00,,---,0.00,VWS V14.01,2013-02-06 16:13:00,
2013-02-06 10:18:00,36.4,30.2,30.23,South,190,5.0,12.0,78,0.00,,---,0.00,VWS V14.01,2013-02-06 16:18:00,
2013-02-06 10:23:00,36.2,30.6,30.24,South,183,8.0,12.0,80,0.00,,---,0.00,VWS V14.01,2013-02-06 16:23:00,
2013-02-06 10:28:00,36.3,30.4,30.24,South,170,6.0,12.0,79,0.00,,---,0.00,VWS V14.01,2013-02-06 16:28:00,
2013-02-06 10:30:00,38.2,31.3,30.21,South,183,5.0,10.0,76,0.00,,---,0.00,VWS V14.01,2013-02-06 16:30:00,
2013-02-06 10:33:00,36.4,30.5,30.24,SSE,166,5.0,9.0,79,0.00,,---,0.00,VWS V14.01,2013-02-06 16:33:00,
2013-02-06 10:38:00,36.5,30.6,30.24,South,182,9.0,10.0,79,0.00,,---,0.00,VWS V14.01,2013-02-06 16:38:00,
2013-02-06 10:43:00,36.7,30.8,30.24,South,172,10.0,10.0,79,0.00,,---,0.00,VWS V14.01,2013-02-06 16:43:00,
2013-02-06 10:48:00,36.4,30.2,30.23,South,189,7.0,13.0,78,0.00,,---,0.00,VWS V14.01,2013-02-06 16:48:00,
2013-02-06 10:53:00,36.5,30.9,30.23,South,188,7.0,13.0,80,0.00,,---,0.00,VWS V14.01,2013-02-06 16:53:00,
2013-02-06 10:58:00,36.6,30.7,30.23,SSW,192,2.0,2.0,79,0.00,,---,0.00,VWS V14.01,2013-02-06 16:58:00,
2013-02-06 11:00:00,39.6,32.0,30.21,SW,234,4.0,8.0,74,0.00,,---,0.00,VWS V14.01,2013-02-06 17:00:00,
2013-02-06 11:04:00,37.2,31.3,30.23,SSE,168,3.0,5.0,79,0.00,,---,0.00,VWS V14.01,2013-02-06 17:04:00,
2013-02-06 11:09:00,37.5,31.3,30.22,SSW,196,1.0,8.0,78,0.00,,---,0.00,VWS V14.01,2013-02-06 17:09:00,
2013-02-06 11:14:00,37.7,31.5,30.22,South,183,3.0,8.0,78,0.00,,---,0.00,VWS V14.01,2013-02-06 17:14:00,
2013-02-06 11:19:00,38.2,31.6,30.22,South,179,1.0,10.0,77,0.00,,---,0.00,VWS V14.01,2013-02-06 17:19:00,
2013-02-06 11:24:00,38.3,31.7,30.21,SSW,192,3.0,10.0,77,0.00,,---,0.00,VWS V14.01,2013-02-06 17:24:00,
2013-02-06 11:29:00,38.2,31.6,30.21,South,182,6.0,8.0,77,0.00,,---,0.00,VWS V14.01,2013-02-06 17:29:00,
2013-02-06 11:30:00,40.2,32.2,30.20,South,179,3.0,9.0,73,0.00,,---,0.00,VWS V14.01,2013-02-06 17:30:00,
2013-02-06 11:34:00,38.4,31.5,30.21,South,177,4.0,8.0,76,0.00,,---,0.00,VWS V14.01,2013-02-06 17:34:00,
2013-02-06 11:39:00,38.8,31.9,30.22,South,182,3.0,8.0,76,0.00,,---,0.00,VWS V14.01,2013-02-06 17:39:00,
2013-02-06 11:44:00,39.0,32.1,30.21,South,188,6.0,8.0,76,0.00,,---,0.00,VWS V14.01,2013-02-06 17:44:00,
2013-02-06 11:49:00,39.4,32.8,30.21,SSE,167,0.0,8.0,77,0.00,,---,0.00,VWS V14.01,2013-02-06 17:49:00,
2013-02-06 11:54:00,39.7,32.4,30.21,South,175,2.0,8.0,75,0.00,,---,0.00,VWS V14.01,2013-02-06 17:54:00,
2013-02-06 11:59:00,39.6,32.3,30.21,SW,225,0.0,4.0,75,0.00,,---,0.00,VWS V14.01,2013-02-06 17:59:00,
2013-02-06 12:00:00,41.4,32.7,30.19,South,181,7.0,12.0,71,0.00,,---,0.00,VWS V14.01,2013-02-06 18:00:00,
2013-02-06 12:04:00,40.1,33.2,30.20,SSE,168,3.0,8.0,76,0.00,,---,0.00,VWS V14.01,2013-02-06 18:04:00,
2013-02-06 12:10:00,40.1,32.5,30.20,South,176,2.0,8.0,74,0.00,,---,0.00,VWS V14.01,2013-02-06 18:10:00,
2013-02-06 12:15:00,40.1,32.5,30.20,SSW,195,3.0,9.0,74,0.00,,---,0.00,VWS V14.01,2013-02-06 18:15:00,
2013-02-06 12:20:00,40.0,32.1,30.20,SW,233,5.0,9.0,73,0.00,,---,0.00,VWS V14.01,2013-02-06 18:20:00,
2013-02-06 12:25:00,40.0,31.7,30.20,South,190,2.0,9.0,72,0.00,,---,0.00,VWS V14.01,2013-02-06 18:25:00,
2013-02-06 12:30:00,40.3,32.0,30.20,SSE,158,4.0,4.0,72,0.00,,---,0.00,VWS V14.01,2013-02-06 18:30:00,
2013-02-06 12:35:00,40.5,31.9,30.20,SW,228,4.0,7.0,71,0.00,,---,0.00,VWS V14.01,2013-02-06 18:35:00,
2013-02-06 12:40:00,40.4,31.8,30.20,NNW,338,3.0,7.0,71,0.00,,---,0.00,VWS V14.01,2013-02-06 18:40:00,
2013-02-06 12:45:00,40.5,32.5,30.20,SSE,160,6.0,7.0,73,0.00,,---,0.00,VWS V14.01,2013-02-06 18:45:00,
2013-02-06 12:50:00,41.0,32.7,30.19,SSE,152,12.0,12.0,72,0.00,,---,0.00,VWS V14.01,2013-02-06 18:50:00,
2013-02-06 12:55:00,41.2,32.5,30.19,SSE,168,2.0,12.0,71,0.00,,---,0.00,VWS V14.01,2013-02-06 18:55:00,
2013-02-06 13:00:00,41.3,31.9,30.19,SW,217,2.0,7.0,69,0.00,,---,0.00,VWS V14.01,2013-02-06 19:00:00,
2013-02-06 13:05:00,41.5,32.5,30.20,SSE,164,4.0,9.0,70,0.00,,---,0.00,VWS V14.01,2013-02-06 19:05:00,
2013-02-06 13:10:00,41.9,33.5,30.19,South,184,3.0,9.0,72,0.00,,---,0.00,VWS V14.01,2013-02-06 19:10:00,
2013-02-06 13:15:00,42.0,32.9,30.19,South,184,3.0,9.0,70,0.00,,---,0.00,VWS V14.01,2013-02-06 19:15:00,
2013-02-06 13:20:00,42.4,33.0,30.19,SSW,195,2.0,9.0,69,0.00,,---,0.00,VWS V14.01,2013-02-06 19:20:00,
2013-02-06 13:25:00,42.3,33.2,30.19,South,190,2.0,9.0,70,0.00,,---,0.00,VWS V14.01,2013-02-06 19:25:00,
2013-02-06 13:30:00,44.4,33.8,30.16,SSE,158,5.0,11.0,66,0.00,,---,0.00,VWS V14.01,2013-02-06 19:30:00,
2013-02-06 13:31:00,42.4,33.0,30.19,South,177,4.0,16.0,69,0.00,,---,0.00,VWS V14.01,2013-02-06 19:31:00,
2013-02-06 13:36:00,42.6,32.8,30.18,SSE,163,2.0,16.0,68,0.00,,---,0.00,VWS V14.01,2013-02-06 19:36:00,
2013-02-06 13:41:00,42.8,32.6,30.18,SSW,192,4.0,16.0,67,0.00,,---,0.00,VWS V14.01,2013-02-06 19:41:00,
2013-02-06 13:46:00,42.8,32.6,30.18,South,181,7.0,16.0,67,0.00,,---,0.00,VWS V14.01,2013-02-06 19:46:00,
2013-02-06 13:51:00,43.0,33.2,30.17,South,181,4.0,16.0,68,0.00,,---,0.00,VWS V14.01,2013-02-06 19:51:00,
2013-02-06 13:56:00,43.2,32.6,30.17,South,191,5.0,16.0,66,0.00,,---,0.00,VWS V14.01,2013-02-06 19:56:00,
2013-02-06 14:00:00,45.1,33.7,30.15,SE,142,6.0,11.0,64,0.00,,---,0.00,VWS V14.01,2013-02-06 20:00:00,
2013-02-06 14:01:00,43.2,32.6,30.17,South,187,5.0,9.0,66,0.00,,---,0.00,VWS V14.01,2013-02-06 20:01:00,
2013-02-06 14:06:00,43.3,32.3,30.16,South,191,4.0,11.0,65,0.00,,---,0.00,VWS V14.01,2013-02-06 20:06:00,
2013-02-06 14:11:00,43.5,32.9,30.16,South,169,5.0,11.0,66,0.00,,---,0.00,VWS V14.01,2013-02-06 20:11:00,
2013-02-06 14:17:00,43.7,33.1,30.16,SSE,155,7.0,11.0,66,0.00,,---,0.00,VWS V14.01,2013-02-06 20:17:00,
2013-02-06 14:22:00,44.3,32.9,30.16,South,169,7.0,11.0,64,0.00,,---,0.00,VWS V14.01,2013-02-06 20:22:00,
2013-02-06 14:27:00,44.3,32.9,30.16,SSE,163,1.0,11.0,64,0.00,,---,0.00,VWS V14.01,2013-02-06 20:27:00,
2013-02-06 14:30:00,44.5,34.6,30.13,SSE,157,7.0,15.0,68,0.00,,---,0.00,VWS V14.01,2013-02-06 20:30:00,
2013-02-06 14:32:00,44.6,33.2,30.15,South,190,6.0,7.0,64,0.00,,---,0.00,VWS V14.01,2013-02-06 20:32:00,
2013-02-06 14:37:00,44.7,33.7,30.15,SE,143,9.0,12.0,65,0.00,,---,0.00,VWS V14.01,2013-02-06 20:37:00,
2013-02-06 14:42:00,44.8,33.4,30.15,SSE,162,8.0,12.0,64,0.00,,---,0.00,VWS V14.01,2013-02-06 20:42:00,
2013-02-06 14:47:00,44.8,34.2,30.15,SSE,150,10.0,14.0,66,0.00,,---,0.00,VWS V14.01,2013-02-06 20:47:00,
2013-02-06 14:52:00,44.6,34.3,30.15,South,176,3.0,10.0,67,0.00,,---,0.00,VWS V14.01,2013-02-06 20:52:00,
2013-02-06 14:57:00,45.1,33.7,30.15,SE,143,7.0,11.0,64,0.00,,---,0.00,VWS V14.01,2013-02-06 20:57:00,
2013-02-06 15:00:00,43.8,33.9,30.11,SSE,151,9.0,18.0,68,0.00,,---,0.00,VWS V14.01,2013-02-06 21:00:00,
2013-02-06 15:02:00,45.0,33.6,30.14,South,171,3.0,11.0,64,0.00,,---,0.00,VWS V14.01,2013-02-06 21:02:00,
2013-02-06 15:07:00,44.9,33.5,30.14,SE,142,8.0,12.0,64,0.00,,---,0.00,VWS V14.01,2013-02-06 21:07:00,
2013-02-06 15:12:00,44.9,34.2,30.14,SSE,151,8.0,12.0,66,0.00,,---,0.00,VWS V14.01,2013-02-06 21:12:00,
2013-02-06 15:17:00,44.7,33.7,30.13,SE,146,10.0,15.0,65,0.00,,---,0.00,VWS V14.01,2013-02-06 21:17:00,
2013-02-06 15:22:00,44.4,33.8,30.13,SSE,165,8.0,15.0,66,0.00,,---,0.00,VWS V14.01,2013-02-06 21:22:00,
2013-02-06 15:27:00,44.4,33.8,30.13,SSE,149,6.0,15.0,66,0.00,,---,0.00,VWS V14.01,2013-02-06 21:27:00,
2013-02-06 15:30:00,42.9,33.8,30.09,SE,139,10.0,15.0,70,0.00,,---,0.00,VWS V14.01,2013-02-06 21:30:00,
2013-02-06 15:33:00,44.4,34.1,30.13,SE,145,10.0,11.0,67,0.00,,---,0.00,VWS V14.01,2013-02-06 21:33:00,
2013-02-06 15:38:00,44.4,33.8,30.13,SE,142,8.0,16.0,66,0.00,,---,0.00,VWS V14.01,2013-02-06 21:38:00,
2013-02-06 15:43:00,44.2,34.0,30.12,SSE,148,8.0,16.0,67,0.00,,---,0.00,VWS V14.01,2013-02-06 21:43:00,
2013-02-06 15:48:00,44.0,34.1,30.11,SE,144,9.0,17.0,68,0.00,,---,0.00,VWS V14.01,2013-02-06 21:48:00,
2013-02-06 15:53:00,43.8,33.9,30.11,SE,138,18.0,18.0,68,0.00,,---,0.00,VWS V14.01,2013-02-06 21:53:00,
2013-02-06 15:58:00,43.8,33.9,30.11,SSE,157,13.0,18.0,68,0.00,,---,0.00,VWS V14.01,2013-02-06 21:58:00,
2013-02-06 16:00:00,41.4,33.4,30.10,SE,136,7.0,11.0,73,0.00,,---,0.00,VWS V14.01,2013-02-06 22:00:00,
2013-02-06 16:03:00,43.9,34.0,30.10,SE,140,13.0,14.0,68,0.00,,---,0.00,VWS V14.01,2013-02-06 22:03:00,
2013-02-06 16:08:00,43.8,33.6,30.10,SE,139,11.0,15.0,67,0.00,,---,0.00,VWS V14.01,2013-02-06 22:08:00,
2013-02-06 16:13:00,43.5,33.7,30.10,SSE,152,7.0,15.0,68,0.00,,---,0.00,VWS V14.01,2013-02-06 22:13:00,
2013-02-06 16:18:00,43.3,33.8,30.10,SE,130,8.0,15.0,69,0.00,,---,0.00,VWS V14.01,2013-02-06 22:18:00,
2013-02-06 16:23:00,43.1,34.0,30.09,SE,142,9.0,15.0,70,0.00,,---,0.00,VWS V14.01,2013-02-06 22:23:00,
2013-02-06 16:28:00,42.9,33.8,30.09,SE,141,8.0,10.0,70,0.00,,---,0.00,VWS V14.01,2013-02-06 22:28:00,
2013-02-06 16:30:00,41.7,33.3,30.12,SSE,158,6.0,10.0,72,0.00,,---,0.00,VWS V14.01,2013-02-06 22:30:00,
2013-02-06 16:34:00,42.7,33.6,30.10,SE,140,6.0,11.0,70,0.00,,---,0.00,VWS V14.01,2013-02-06 22:34:00,
2013-02-06 16:39:00,42.5,33.8,30.10,SE,132,7.0,11.0,71,0.00,,---,0.00,VWS V14.01,2013-02-06 22:39:00,
2013-02-06 16:44:00,42.1,33.7,30.10,SE,134,8.0,11.0,72,0.00,,---,0.00,VWS V14.01,2013-02-06 22:44:00,
2013-02-06 16:49:00,41.7,33.3,30.10,SE,136,6.0,11.0,72,0.00,,---,0.00,VWS V14.01,2013-02-06 22:49:00,
2013-02-06 16:54:00,41.7,33.3,30.10,SE,132,7.0,11.0,72,0.00,,---,0.00,VWS V14.01,2013-02-06 22:54:00,
2013-02-06 16:59:00,41.3,33.3,30.10,SE,140,9.0,9.0,73,0.00,,---,0.00,VWS V14.01,2013-02-06 22:59:00,
2013-02-06 17:00:00,41.4,33.1,30.13,SE,138,6.0,10.0,72,0.00,,---,0.00,VWS V14.01,2013-02-06 23:00:00,
2013-02-06 17:04:00,41.3,33.3,30.10,SE,145,8.0,9.0,73,0.00,,---,0.00,VWS V14.01,2013-02-06 23:04:00,
2013-02-06 17:09:00,41.1,33.1,30.11,SSE,160,5.0,9.0,73,0.00,,---,0.00,VWS V14.01,2013-02-06 23:09:00,
2013-02-06 17:14:00,41.3,33.3,30.11,SSE,157,7.0,9.0,73,0.00,,---,0.00,VWS V14.01,2013-02-06 23:14:00,
2013-02-06 17:19:00,41.5,33.2,30.11,SSE,153,5.0,9.0,72,0.00,,---,0.00,VWS V14.01,2013-02-06 23:19:00,
2013-02-06 17:24:00,41.7,33.3,30.11,SSE,158,6.0,10.0,72,0.00,,---,0.00,VWS V14.01,2013-02-06 23:24:00,
2013-02-06 17:29:00,41.7,33.3,30.12,SSE,158,6.0,6.0,72,0.00,,---,0.00,VWS V14.01,2013-02-06 23:29:00,
2013-02-06 17:30:00,39.7,33.1,30.11,SE,138,10.0,12.0,77,0.00,,---,0.00,VWS V14.01,2013-02-06 23:30:00,
2013-02-06 17:35:00,41.6,33.3,30.12,SSE,158,7.0,9.0,72,0.00,,---,0.00,VWS V14.01,2013-02-06 23:35:00,
2013-02-06 17:40:00,41.7,33.3,30.12,SSE,151,4.0,9.0,72,0.00,,---,0.00,VWS V14.01,2013-02-06 23:40:00,
2013-02-06 17:45:00,41.6,33.3,30.13,SSE,159,4.0,10.0,72,0.00,,---,0.00,VWS V14.01,2013-02-06 23:45:00,
2013-02-06 17:50:00,41.5,33.2,30.13,SSE,155,5.0,10.0,72,0.00,,---,0.00,VWS V14.01,2013-02-06 23:50:00,
2013-02-06 17:55:00,41.4,33.1,30.13,SSE,155,5.0,10.0,72,0.00,,---,0.00,VWS V14.01,2013-02-06 23:55:00,
2013-02-06 18:00:00,41.3,33.0,30.13,SSE,162,4.0,9.0,72,0.00,,---,0.00,VWS V14.01,2013-02-07 00:00:00,
2013-02-06 18:05:00,40.9,32.9,30.13,SSE,148,5.0,9.0,73,0.00,,---,0.00,VWS V14.01,2013-02-07 00:05:00,
2013-02-06 18:10:00,40.3,32.7,30.13,SE,142,7.0,9.0,74,0.00,,---,0.00,VWS V14.01,2013-02-07 00:10:00,
2013-02-06 18:15:00,39.9,32.6,30.12,SE,137,6.0,9.0,75,0.00,,---,0.00,VWS V14.01,2013-02-07 00:15:00,
2013-02-06 18:20:00,39.7,32.8,30.12,SSE,151,9.0,10.0,76,0.00,,---,0.00,VWS V14.01,2013-02-07 00:20:00,
2013-02-06 18:25:00,39.8,32.9,30.11,SE,136,8.0,12.0,76,0.00,,---,0.00,VWS V14.01,2013-02-07 00:25:00,
2013-02-06 18:30:00,39.7,33.7,30.10,SSE,154,7.0,17.0,79,0.00,,---,0.00,VWS V14.01,2013-02-07 00:30:00,
2013-02-06 18:31:00,39.4,32.8,30.11,SE,130,9.0,12.0,77,0.00,,---,0.00,VWS V14.01,2013-02-07 00:31:00,
2013-02-06 18:36:00,39.2,32.9,30.10,SE,139,11.0,12.0,78,0.00,,---,0.00,VWS V14.01,2013-02-07 00:36:00,
2013-02-06 18:41:00,39.5,33.2,30.10,SE,132,8.0,12.0,78,0.00,,---,0.00,VWS V14.01,2013-02-07 00:41:00,
2013-02-06 18:46:00,39.7,33.4,30.10,SE,141,12.0,14.0,78,0.00,,---,0.00,VWS V14.01,2013-02-07 00:46:00,
2013-02-06 18:51:00,39.9,33.3,30.10,SSE,150,12.0,14.0,77,0.00,,---,0.00,VWS V14.01,2013-02-07 00:51:00,
2013-02-06 18:56:00,39.8,33.5,30.10,SE,138,12.0,14.0,78,0.00,,---,0.00,VWS V14.01,2013-02-07 00:56:00,
2013-02-06 19:00:00,39.2,32.9,30.10,SE,144,9.0,15.0,78,0.00,,---,0.00,VWS V14.01,2013-02-07 01:00:00,
2013-02-06 19:01:00,39.8,33.5,30.11,SE,143,9.0,13.0,78,0.00,,---,0.00,VWS V14.01,2013-02-07 01:01:00,
2013-02-06 19:06:00,39.9,33.6,30.11,SE,142,8.0,15.0,78,0.00,,---,0.00,VWS V14.01,2013-02-07 01:06:00,
2013-02-06 19:11:00,39.8,33.5,30.11,SSE,151,11.0,15.0,78,0.00,,---,0.00,VWS V14.01,2013-02-07 01:11:00,
2013-02-06 19:16:00,39.8,33.5,30.10,SSE,149,7.0,17.0,78,0.00,,---,0.00,VWS V14.01,2013-02-07 01:16:00,
2013-02-06 19:21:00,39.7,33.4,30.10,SSE,153,6.0,17.0,78,0.00,,---,0.00,VWS V14.01,2013-02-07 01:21:00,
2013-02-06 19:27:00,39.7,33.4,30.10,SSE,150,8.0,17.0,78,0.00,,---,0.00,VWS V14.01,2013-02-07 01:27:00,
2013-02-06 19:30:00,38.2,32.6,30.08,SE,146,9.0,18.0,80,0.00,,---,0.00,VWS V14.01,2013-02-07 01:30:00,
2013-02-06 19:31:00,39.7,33.7,30.10,SSE,161,8.0,12.0,79,0.00,,---,0.00,VWS V14.01,2013-02-07 01:31:00,
2013-02-06 19:37:00,39.8,33.5,30.10,SE,146,10.0,12.0,78,0.00,,---,0.00,VWS V14.01,2013-02-07 01:37:00,
2013-02-06 19:42:00,39.7,33.4,30.10,SSE,157,10.0,13.0,78,0.00,,---,0.00,VWS V14.01,2013-02-07 01:42:00,
2013-02-06 19:47:00,39.4,33.1,30.10,SSE,147,8.0,13.0,78,0.00,,---,0.00,VWS V14.01,2013-02-07 01:47:00,
2013-02-06 19:52:00,39.4,33.1,30.10,SSE,153,9.0,14.0,78,0.00,,---,0.00,VWS V14.01,2013-02-07 01:52:00,
2013-02-06 19:57:00,39.3,33.0,30.10,SSE,149,10.0,15.0,78,0.00,,---,0.00,VWS V14.01,2013-02-07 01:57:00,
2013-02-06 20:00:00,37.1,32.1,30.09,SSE,150,11.0,19.0,82,0.00,,---,0.00,VWS V14.01,2013-02-07 02:00:00,
2013-02-06 20:02:00,39.0,33.0,30.10,SSE,148,9.0,15.0,79,0.00,,---,0.00,VWS V14.01,2013-02-07 02:02:00,
2013-02-06 20:07:00,38.9,33.0,30.10,SE,142,11.0,15.0,79,0.00,,---,0.00,VWS V14.01,2013-02-07 02:07:00,
2013-02-06 20:12:00,38.9,33.0,30.10,SE,138,11.0,18.0,79,0.00,,---,0.00,VWS V14.01,2013-02-07 02:12:00,
2013-02-06 20:17:00,38.7,32.8,30.09,SSE,148,14.0,18.0,79,0.00,,---,0.00,VWS V14.01,2013-02-07 02:17:00,
2013-02-06 20:22:00,38.5,32.6,30.09,SE,136,14.0,18.0,79,0.00,,---,0.00,VWS V14.01,2013-02-07 02:22:00,
2013-02-06 20:27:00,38.2,32.3,30.08,SE,141,13.0,18.0,79,0.00,,---,0.00,VWS V14.01,2013-02-07 02:27:00,
2013-02-06 20:30:00,36.6,31.9,30.10,SSE,148,11.0,19.0,83,0.00,,---,0.00,VWS V14.01,2013-02-07 02:30:00,
2013-02-06 20:33:00,38.1,32.5,30.08,SE,138,14.0,18.0,80,0.00,,---,0.00,VWS V14.01,2013-02-07 02:33:00,
2013-02-06 20:38:00,38.0,32.4,30.08,SSE,151,13.0,19.0,80,0.00,,---,0.00,VWS V14.01,2013-02-07 02:38:00,
2013-02-06 20:43:00,37.9,32.3,30.08,SE,134,12.0,19.0,80,0.00,,---,0.00,VWS V14.01,2013-02-07 02:43:00,
2013-02-06 20:48:00,37.6,32.0,30.09,SSE,153,8.0,19.0,80,0.00,,---,0.00,VWS V14.01,2013-02-07 02:48:00,
2013-02-06 20:53:00,37.3,32.0,30.09,SSE,155,10.0,19.0,81,0.00,,---,0.00,VWS V14.01,2013-02-07 02:53:00,
2013-02-06 20:58:00,37.1,32.1,30.09,SSE,150,11.0,19.0,82,0.00,,---,0.00,VWS V14.01,2013-02-07 02:58:00,
2013-02-06 21:00:00,36.4,31.7,30.09,SSE,147,11.0,20.0,83,0.00,,---,0.00,VWS V14.01,2013-02-07 03:00:00,
2013-02-06 21:03:00,37.1,32.1,30.09,SE,140,14.0,19.0,82,0.00,,---,0.00,VWS V14.01,2013-02-07 03:03:00,
2013-02-06 21:08:00,37.1,32.1,30.09,SE,145,17.0,19.0,82,0.00,,---,0.00,VWS V14.01,2013-02-07 03:08:00,
2013-02-06 21:14:00,37.1,32.1,30.09,SE,146,11.0,19.0,82,0.00,,---,0.00,VWS V14.01,2013-02-07 03:14:00,
2013-02-06 21:19:00,37.0,32.0,30.09,SE,141,14.0,19.0,82,0.00,,---,0.00,VWS V14.01,2013-02-07 03:19:00,
2013-02-06 21:24:00,36.8,32.1,30.10,SE,139,9.0,19.0,83,0.00,,---,0.00,VWS V14.01,2013-02-07 03:24:00,
2013-02-06 21:29:00,36.6,31.9,30.10,SE,138,9.0,11.0,83,0.00,,---,0.00,VWS V14.01,2013-02-07 03:29:00,
2013-02-06 21:30:00,36.1,31.7,30.09,SSE,163,10.0,18.0,84,0.00,,---,0.00,VWS V14.01,2013-02-07 03:30:00,
2013-02-06 21:34:00,36.5,31.8,30.10,South,172,12.0,16.0,83,0.00,,---,0.00,VWS V14.01,2013-02-07 03:34:00,
2013-02-06 21:39:00,36.6,31.9,30.10,SSE,166,10.0,16.0,83,0.00,,---,0.00,VWS V14.01,2013-02-07 03:39:00,
2013-02-06 21:44:00,36.7,32.0,30.09,SSE,152,16.0,18.0,83,0.00,,---,0.00,VWS V14.01,2013-02-07 03:44:00,
2013-02-06 21:49:00,36.5,31.8,30.09,SE,138,15.0,18.0,83,0.00,,---,0.00,VWS V14.01,2013-02-07 03:49:00,
2013-02-06 21:54:00,36.5,31.8,30.09,SSE,159,13.0,20.0,83,0.00,,---,0.00,VWS V14.01,2013-02-07 03:54:00,
2013-02-06 21:59:00,36.4,31.7,30.09,SE,146,15.0,15.0,83,0.00,,---,0.00,VWS V14.01,2013-02-07 03:59:00,
2013-02-06 22:00:00,35.9,31.8,30.08,SSE,163,12.0,20.0,85,0.00,,---,0.00,VWS V14.01,2013-02-07 04:00:00,
2013-02-06 22:04:00,36.4,31.7,30.09,SSE,151,10.0,16.0,83,0.00,,---,0.00,VWS V14.01,2013-02-07 04:04:00,
2013-02-06 22:09:00,36.3,31.6,30.09,SE,146,13.0,18.0,83,0.00,,---,0.00,VWS V14.01,2013-02-07 04:09:00,
2013-02-06 22:15:00,36.2,31.8,30.09,SE,146,14.0,18.0,84,0.00,,---,0.00,VWS V14.01,2013-02-07 04:15:00,
2013-02-06 22:20:00,36.2,31.8,30.09,SSE,156,8.0,18.0,84,0.00,,---,0.00,VWS V14.01,2013-02-07 04:20:00,
2013-02-06 22:25:00,36.1,31.7,30.09,SSE,150,13.0,18.0,84,0.00,,---,0.00,VWS V14.01,2013-02-07 04:25:00,
2013-02-06 22:30:00,36.0,31.6,30.09,SSE,154,10.0,16.0,84,0.00,,---,0.00,VWS V14.01,2013-02-07 04:30:00,
2013-02-06 22:35:00,35.8,31.7,30.08,SSE,153,13.0,20.0,85,0.00,,---,0.00,VWS V14.01,2013-02-07 04:35:00,
2013-02-06 22:40:00,35.8,31.7,30.07,SE,146,9.0,20.0,85,0.00,,---,0.00,VWS V14.01,2013-02-07 04:40:00,
2013-02-06 22:45:00,35.7,31.6,30.07,SSE,161,11.0,20.0,85,0.00,,---,0.00,VWS V14.01,2013-02-07 04:45:00,
2013-02-06 22:50:00,35.8,31.7,30.08,SSE,157,12.0,20.0,85,0.00,,---,0.00,VWS V14.01,2013-02-07 04:50:00,
2013-02-06 22:55:00,35.9,31.8,30.08,South,177,11.0,20.0,85,0.00,,---,0.00,VWS V14.01,2013-02-07 04:55:00,
2013-02-06 23:00:00,35.9,31.8,30.08,SSE,162,8.0,16.0,85,0.00,,---,0.00,VWS V14.01,2013-02-07 05:00:00,
2013-02-06 23:01:00,35.9,31.8,30.08,SSE,155,9.0,16.0,85,0.00,,---,0.00,VWS V14.01,2013-02-07 05:01:00,
2013-02-06 23:06:00,35.9,31.8,30.08,SE,146,13.0,16.0,85,0.00,,---,0.00,VWS V14.01,2013-02-07 05:06:00,
2013-02-06 23:11:00,35.8,31.7,30.08,SE,142,12.0,18.0,85,0.00,,---,0.00,VWS V14.01,2013-02-07 05:11:00,
2013-02-06 23:16:00,35.8,31.7,30.08,SE,145,13.0,19.0,85,0.00,,---,0.00,VWS V14.01,2013-02-07 05:16:00,
2013-02-06 23:22:00,35.8,31.7,30.08,SSE,148,16.0,20.0,85,0.00,,---,0.00,VWS V14.01,2013-02-07 05:22:00,
2013-02-06 23:27:00,35.8,31.7,30.07,SSE,159,13.0,20.0,85,0.00,,---,0.00,VWS V14.01,2013-02-07 05:27:00,
2013-02-06 23:30:00,35.5,31.7,30.06,SSE,161,6.0,16.0,86,0.00,,---,0.00,VWS V14.01,2013-02-07 05:30:00,
2013-02-06 23:32:00,35.7,31.6,30.07,SSE,163,13.0,20.0,85,0.00,,---,0.00,VWS V14.01,2013-02-07 05:32:00,
2013-02-06 23:37:00,35.7,31.9,30.06,SE,142,13.0,20.0,86,0.00,,---,0.00,VWS V14.01,2013-02-07 05:37:00,
2013-02-06 23:42:00,35.7,31.6,30.07,SSE,161,6.0,20.0,85,0.00,,---,0.00,VWS V14.01,2013-02-07 05:42:00,
2013-02-06 23:47:00,35.7,31.6,30.07,SSE,165,13.0,20.0,85,0.00,,---,0.00,VWS V14.01,2013-02-07 05:47:00,
2013-02-06 23:52:00,35.6,31.8,30.07,SE,146,11.0,20.0,86,0.00,,---,0.00,VWS V14.01,2013-02-07 05:52:00,
2013-02-06 23:57:00,35.5,31.7,30.06,SE,146,12.0,20.0,86,0.00,,---,0.00,VWS V14.01,2013-02-07 05:57:00,